Location: Axtheid
(49.6213°N, 11.8205°E)
Time: 18:06:27
(UTC+00:00)

ISS - Visible Passes

Search period start: 24 January 2022 00:00
Search period end: 03 February 2022 00:00
Orbit: 413 x 422 km, 51.6° (Epoch: 24 January)

Date Brightness Start Highest point End Pass type
(mag) Time Alt. Az. Time Alt. Az. Time Alt. Az.
24 Jan -3.8 17:15:52 10° WSW 17:19:13 87° NNW 17:20:52 27° ENE visible
24 Jan -0.9 18:52:51 10° WNW 18:53:48 18° WNW 18:53:48 18° WNW visible
25 Jan -3.7 16:27:53 10° WSW 16:31:12 72° SSE 16:34:32 10° ENE visible
25 Jan -3.3 18:04:45 10° W 18:07:45 55° NNW 18:07:45 55° NNW visible
26 Jan -3.6 17:16:39 10° W 17:19:59 63° N 17:21:41 26° ENE visible
26 Jan -1.0 18:53:36 10° WNW 18:54:37 18° WNW 18:54:37 18° WNW visible
27 Jan -3.7 16:28:33 10° W 16:31:53 73° NNW 16:35:14 10° ENE visible
27 Jan -3.4 18:05:32 10° WNW 18:08:32 58° NNW 18:08:32 58° NNW visible
28 Jan -3.6 17:17:26 10° WNW 17:20:45 58° N 17:22:29 25° ENE visible
28 Jan -1.1 18:54:17 10° WNW 18:55:25 20° WNW 18:55:25 20° WNW visible
29 Jan -3.8 18:06:12 10° WNW 18:09:23 80° NW 18:09:23 80° NW visible
30 Jan -3.8 17:18:06 10° WNW 17:21:27 71° NNE 17:23:25 22° E visible
30 Jan -1.1 18:55:00 10° W 18:56:21 21° W 18:56:21 21° W visible
31 Jan -3.3 18:06:49 10° WNW 18:10:05 54° SSW 18:10:26 51° S visible
01 Feb -3.7 17:18:41 10° WNW 17:22:02 75° SSW 17:24:37 16° ESE visible
01 Feb -1.0 18:56:01 10° W 18:57:34 17° WSW 18:57:34 17° WSW visible
02 Feb -1.9 18:07:34 10° W 18:10:26 26° SW 18:11:53 19° S visible
